Barrow, AK

12:42 AM AKDT on June 20, 2018 (GMT -0800)
Wiley Post-Will Rogers Memorial

Weather History for PABR - November, 2017

Change the Weather History Date:

Tuesday, November 14, 2017

  Actual Average Record
Temperature  
Mean Temperature 11 °F 1 °F  
Max Temperature 19 °F 6 °F 34 °F (1937)
Min Temperature 2 °F -5 °F -29 °F (1955)
Degree Days  
Heating Degree Days 54 64  
Month to date heating degree days 447 854  
Since 1 July heating degree days 3947 4877  
Cooling Degree Days 0 0  
Month to date cooling degree days 0 0  
Year to date cooling degree days 0 0  
Moisture  
Dew Point 7 °F    
Average Humidity 88    
Maximum Humidity 95    
Minimum Humidity 84    
Precipitation  
Precipitation T in 0.01 in 0.31 in (1965)
Month to date precipitation 0.64 0.11  
Year to date precipitation 7.68 4.29  
Snow  
Snow T in 0.20 in 3.40 in (1965)
Month to date snowfall 4.3 3.1  
Since 1 July snowfall 12.2 17.7  
Since 1 September snowfall 11.4 16.6  
Snow Depth 4.00 in    
Sea Level Pressure  
Sea Level Pressure 30.46 in    
Wind  
Wind Speed 10 mph (SSE)    
Max Wind Speed 18 mph    
Max Gust Speed -    
Visibility 9 miles    
Events      
T = Trace of Precipitation, MM = Missing Value Source: NWS Daily Summary

Daily Weather History Graph

Daily Weather History Graph

Search for Another Location

Airport or City:

Astronomy

Nov. 14, 2017 Rise Set
Actual Time 11:49 AM AKST 2:32 PM AKST
Civil Twilight 9:50 AM AKST 4:31 PM AKST
Nautical Twilight 8:21 AM AKST 6:00 PM AKST
Astronomical Twilight 7:03 AM AKST 7:17 PM AKST
Moon 4:19 AM AKST (11/14) 4:26 PM AKST (11/14)
Length of Visible Light 6h 40m
Length of Day
2h 43m
Waning Crescent, 12% of the Moon is Illuminated
Nov 14
Waning Crescent
Nov 18
New
Nov 26
First Quarter
Dec 3
Full
Dec 9
Last Quarter

Hourly Weather History & Observations

Time (AKST) Temp. Windchill Dew Point Humidity Pressure Visibility Wind Dir Wind Speed Gust Speed Precip Events Conditions
12:53 AM 17.1 °F 5.8 °F 12.9 °F 84% 30.57 in 10.0 mi SSW 9.2 mph - N/A   Overcast
1:53 AM 18.0 °F 6.9 °F 14.0 °F 84% 30.58 in 10.0 mi SSW 9.2 mph - N/A   Overcast
2:53 AM 17.1 °F 6.6 °F 12.9 °F 84% 30.57 in 10.0 mi SSW 8.1 mph - N/A   Overcast
3:53 AM 16.0 °F 7.4 °F 12.0 °F 84% 30.56 in 10.0 mi SSW 5.8 mph - N/A   Overcast
4:53 AM 14.0 °F 3.9 °F 10.9 °F 88% 30.57 in 10.0 mi South 6.9 mph - N/A   Overcast
5:53 AM 10.0 °F -1.9 °F 8.1 °F 92% 30.56 in 10.0 mi SSW 8.1 mph - N/A   Mostly Cloudy
6:53 AM 3.0 °F -11.5 °F 1.0 °F 91% 30.55 in 7.0 mi SE 9.2 mph - N/A   Scattered Clouds
7:53 AM 5.0 °F -6.9 °F 3.0 °F 92% 30.53 in 10.0 mi SSE 6.9 mph - N/A   Mostly Cloudy
8:53 AM 3.0 °F -8.0 °F 1.9 °F 95% 30.53 in 3.0 mi SSE 5.8 mph - 0.00 in   Mostly Cloudy
9:53 AM 6.1 °F -6.8 °F 3.9 °F 91% 30.51 in 10.0 mi SE 8.1 mph - N/A   Mostly Cloudy
10:29 AM 3.9 °F -11.3 °F 1.9 °F 91% 30.49 in 4.0 mi SSE 10.4 mph - N/A   Mostly Cloudy
10:53 AM 3.9 °F -11.3 °F 1.9 °F 91% 30.51 in 2.0 mi SE 10.4 mph - N/A   Mostly Cloudy
11:15 AM 5.0 °F -9.1 °F 3.0 °F 92% 30.49 in 4.0 mi SE 9.2 mph - N/A   Mostly Cloudy
11:53 AM 6.1 °F -6.8 °F 3.0 °F 87% 30.50 in 5.0 mi SE 8.1 mph - N/A   Mostly Cloudy
12:53 PM 8.1 °F -4.3 °F 5.0 °F 87% 30.48 in 10.0 mi SE 8.1 mph - N/A   Mostly Cloudy
1:53 PM 9.0 °F -4.2 °F 6.1 °F 88% 30.46 in 10.0 mi SE 9.2 mph - N/A   Mostly Cloudy
2:53 PM 12.0 °F -1.3 °F 9.0 °F 88% 30.44 in 10.0 mi SE 10.4 mph - N/A   Overcast
3:53 PM 12.0 °F -1.3 °F 9.0 °F 88% 30.41 in 10.0 mi ESE 10.4 mph - N/A   Overcast
4:53 PM 12.0 °F -2.0 °F 9.0 °F 88% 30.38 in 10.0 mi ESE 11.5 mph - N/A   Mostly Cloudy
5:53 PM 12.0 °F -4.5 °F 9.0 °F 88% 30.35 in 10.0 mi ESE 16.1 mph - N/A   Partly Cloudy
6:53 PM 12.9 °F -2.2 °F 9.0 °F 84% 30.34 in 10.0 mi ESE 13.8 mph - N/A   Scattered Clouds
7:53 PM 12.9 °F -3.9 °F 9.0 °F 84% 30.30 in 10.0 mi ESE 17.3 mph - N/A   Overcast
8:53 PM 14.0 °F -3.0 °F 10.0 °F 84% 30.26 in 10.0 mi ESE 18.4 mph - N/A   Overcast
9:53 PM 12.9 °F -4.4 °F 9.0 °F 84% 30.25 in 10.0 mi ESE 18.4 mph - N/A   Overcast
11:53 PM 14.0 °F -3.0 °F 10.0 °F 84% 30.19 in 10.0 mi ESE 18.4 mph - N/A   Overcast